MONITOR-4 (RS57S) (57182 NORAD) Tracking and Keplerian Element Data

This shows tracking and keplerian element data for the satellite.

Feedback or suggestion? Click here.




ElementValue
Catalog57182
NameMONITOR-4 (RS57S)
Epoch Orbit7124
Epoch Day286.77840121
Epoch Year2024
RAAN338.2273
Inclination97.6001
Eccentricity0.0017822
Argument of Perigee76.698
Mean Anonmoly283.6236
Mean Motion15.11822899
Decay Rate0.00019281
L11 57182U 23091S 24286.77840121 .00019281 00000+0 11260-2 0 9992
L22 57182 97.6001 338.2273 0017822 76.6980 283.6236 15.11822899 71242



Live tracking and technical data element details for MONITOR-4 (RS57S) (NORAD 57182). MONITOR-4 (RS57S) can be tracked NOW for your location showing map with azimuth and elevation plus other details from your city location.







IsCatalogInMostPopularTable: catalog: 57182, numindb: 23
Update: records affected: 1



GetName: 57182 MONITOR-4 (RS57S)

Hit Count: updated at: Thu, 23 Jan 2025 17:52:39 GMT